Location: Grand Lay
(47.3253°N, 0.9468°E)
Time: 18:16:35
(UTC+00:00)

Gbstr 26 Del rocket - Pass Details

Date: 20 April 2026
Orbit: 490 x 1216 km, 51.8° (Epoch: 13 May)

Event Time Altitude Azimuth Distance (km) Brightness Sun altitude
Exits shadow 03:42:52 - 292° (WNW) 2,000 5.3 -12.5°
Reaches altitude 10° 03:43:37 10° 290° (WNW) 1,691 5.0 -12.4°
Maximum altitude 03:47:17 56° 212° (SSW) 586 2.6 -11.8°
Drops below altitude 10° 03:51:00 10° 133° (SE) 1,721 5.5 -11.3°
Sets 03:53:17 0° 129° (SE) 2,658 6.6 -11.0°
